Weather History for Rochelle, IL

Change the Weather History Date:

Saturday, April 6, 2013

  Actual Average (KRFD) Record (KRFD)
Temperature  
Mean Temperature 50 °F 46 °F  
Max Temperature 65 °F 57 °F 86 °F (1929)
Min Temperature 34 °F 35 °F 11 °F (1982)
Degree Days  
Heating Degree Days 16 19  
Month to date heating degree days 122  
Since 1 July heating degree days 5986  
Cooling Degree Days 0 0  
Month to date cooling degree days 0  
Year to date cooling degree days 0  
Moisture  
Dew Point 35 °F    
Average Humidity 59    
Maximum Humidity 91    
Minimum Humidity 34    
Precipitation  
Precipitation 0.22 in 0.11 in 0.98 in (1988)
Month to date precipitation 0.63  
Year to date precipitation 5.73  
Snow  
Snow 0.00 in 0.10 in 6.00 in (1938)
Month to date snowfall 0.4  
Since 1 July snowfall 36.2  
Snow Depth -    
Sea Level Pressure  
Sea Level Pressure 29.82 in    
Wind  
Wind Speed 16 mph (SSE)    
Max Wind Speed 34 mph    
Max Gust Speed 43 mph    
Visibility 10 miles    
Events Rain , Thunderstorm    
T = Trace of Precipitation, MM = Missing Value Source: NWS Daily Summary

Daily Weather History Graph

Daily Weather History Graph

Search for Another Location

Airport:

Trip Planner

Search our weather history database for the weather conditions in past years. The results will help you decide how hot, cold, wet, or windy it might be!

Date:

Astronomy

Apr. 06, 2013 Rise Set
Actual Time 6:30 AM CDT 7:27 PM CDT
Civil Twilight 6:01 AM CDT 7:56 PM CDT
Nautical Twilight 5:28 AM CDT 8:30 PM CDT
Astronomical Twilight 4:52 AM CDT 9:05 PM CDT
Moon 4:17 AM CDT (4/6) 3:53 PM CDT (4/6)
Length of Visible Light 13h 54m
Length of Day
12h 57m
Waning Crescent, 15% of the Moon is Illuminated
Apr 6
Waning Crescent
Apr 10
New
Apr 18
First Quarter
Apr 25
Full
May 2
Last Quarter

Hourly Weather History & Observations

Time (CDT) Temp. Windchill Dew Point Humidity Pressure Visibility Wind Dir Wind Speed Gust Speed Precip Events Conditions
12:15 AM 36.5 °F 29.2 °F 19.4 °F 50% 30.10 in 10.0 mi ESE 10.4 mph - N/A   Clear
12:35 AM 36.5 °F 29.7 °F 19.9 °F 51% 30.11 in 10.0 mi East 9.2 mph - N/A   Scattered Clouds
12:55 AM 36.5 °F 28.2 °F 19.2 °F 50% 30.09 in 10.0 mi ESE 12.7 mph - N/A   Mostly Cloudy
1:15 AM 36.1 °F 27.7 °F 20.3 °F 53% 30.09 in 10.0 mi East 12.7 mph - N/A   Mostly Cloudy
1:35 AM 35.8 °F 25.7 °F 21.2 °F 55% 30.07 in 10.0 mi East 17.3 mph 20.7 mph N/A   Mostly Cloudy
1:55 AM 35.8 °F 26.5 °F 22.8 °F 59% 30.07 in 10.0 mi East 15.0 mph - N/A   Scattered Clouds
2:15 AM 35.6 °F 25.9 °F 23.5 °F 62% 30.06 in 10.0 mi East 16.1 mph - N/A   Clear
2:35 AM 35.4 °F 25.6 °F 23.7 °F 62% 30.05 in 10.0 mi ESE 16.1 mph 24.2 mph N/A   Scattered Clouds
2:55 AM 35.1 °F 25.5 °F 24.6 °F 66% 30.05 in 10.0 mi ESE 15.0 mph 19.6 mph N/A   Scattered Clouds
3:15 AM 34.9 °F 26.2 °F 25.5 °F 69% 30.05 in 10.0 mi ESE 12.7 mph - N/A   Scattered Clouds
3:35 AM 34.7 °F 25.9 °F 25.7 °F 70% 30.04 in 10.0 mi ESE 12.7 mph - N/A   Scattered Clouds
3:55 AM 34.7 °F 26.4 °F 25.3 °F 69% 30.04 in 10.0 mi ESE 11.5 mph 19.6 mph N/A   Clear
4:15 AM 34.7 °F 25.1 °F 25.5 °F 69% 30.03 in 10.0 mi SE 15.0 mph - N/A   Clear
4:35 AM 34.9 °F 27.1 °F 25.5 °F 69% 30.03 in 10.0 mi ESE 10.4 mph 18.4 mph N/A   Scattered Clouds
4:55 AM 34.9 °F 25.7 °F 25.5 °F 69% 30.02 in 10.0 mi ESE 13.8 mph - N/A   Clear
5:15 AM 34.9 °F 26.2 °F 25.7 °F 69% 30.02 in 10.0 mi ESE 12.7 mph - N/A   Scattered Clouds
5:35 AM 34.9 °F 27.1 °F 26.2 °F 71% 30.02 in 10.0 mi ESE 10.4 mph - N/A   Scattered Clouds
5:55 AM 34.7 °F 26.4 °F 26.6 °F 72% 30.01 in 10.0 mi ESE 11.5 mph - N/A   Mostly Cloudy
6:15 AM 34.9 °F 25.7 °F 26.6 °F 72% 29.99 in 10.0 mi SE 13.8 mph - N/A   Mostly Cloudy
6:35 AM 35.2 °F 26.2 °F 26.6 °F 71% 29.99 in 10.0 mi SE 13.8 mph - N/A   Scattered Clouds
6:55 AM 36.3 °F 27.1 °F 26.6 °F 68% 29.98 in 10.0 mi SE 15.0 mph 21.9 mph N/A   Scattered Clouds
7:15 AM 36.5 °F 26.0 °F 26.8 °F 68% 29.97 in 10.0 mi SE 19.6 mph 25.3 mph N/A   Clear
7:35 AM 36.7 °F 26.6 °F 27.7 °F 70% 29.97 in 10.0 mi SSE 18.4 mph - N/A   Clear
7:55 AM 37.4 °F 26.9 °F 27.9 °F 68% 29.95 in 10.0 mi SSE 20.7 mph 24.2 mph N/A   Clear
8:15 AM 38.5 °F 28.3 °F 28.6 °F 68% 29.94 in 10.0 mi SSE 20.7 mph - N/A   Clear
8:35 AM 40.3 °F 30.2 °F 29.1 °F 64% 29.92 in 10.0 mi SSE 23.0 mph 26.5 mph N/A   Clear
8:55 AM 41.5 °F 31.0 °F 29.7 °F 63% 29.90 in 10.0 mi SSE 27.6 mph 31.1 mph N/A   Scattered Clouds
9:15 AM 42.3 °F 32.2 °F 30.0 °F 62% 29.89 in 10.0 mi SSE 26.5 mph 31.1 mph N/A   Clear
9:35 AM 44.1 °F 35.2 °F 31.1 °F 60% 29.88 in 10.0 mi SSE 23.0 mph 28.8 mph N/A   Clear
9:55 AM 45.5 °F 36.5 °F 32.4 °F 60% 29.87 in 10.0 mi SSE 26.5 mph 34.5 mph N/A Rain Light Rain
10:15 AM 46.9 °F - 32.2 °F 57% 29.87 in 10.0 mi SSE 24.2 mph 31.1 mph N/A   Scattered Clouds
10:35 AM 48.9 °F - 32.0 °F 52% 29.86 in 10.0 mi SSE 23.0 mph 36.8 mph N/A   Scattered Clouds
10:55 AM 49.6 °F - 33.1 °F 53% 29.85 in 10.0 mi SSE 21.9 mph 28.8 mph N/A   Clear
11:15 AM 52.0 °F - 34.5 °F 51% 29.83 in 10.0 mi SSE 23.0 mph 26.5 mph N/A   Clear
11:35 AM 54.7 °F - 35.6 °F 49% 29.81 in 10.0 mi SSE 21.9 mph 32.2 mph N/A   Clear
11:55 AM 58.3 °F - 35.4 °F 42% 29.79 in 10.0 mi South 26.5 mph 34.5 mph N/A   Clear
12:15 PM 59.4 °F - 35.2 °F 40% 29.77 in 10.0 mi South 29.9 mph 35.7 mph N/A   Clear
12:35 PM 60.8 °F - 36.1 °F 40% 29.75 in 10.0 mi South 27.6 mph 38.0 mph N/A   Clear
12:55 PM 62.6 °F - 37.0 °F 39% 29.74 in 10.0 mi South 28.8 mph 35.7 mph N/A   Clear
1:15 PM 64.6 °F - 36.1 °F 35% 29.72 in 10.0 mi South 34.5 mph 42.6 mph N/A   Clear
1:35 PM 64.6 °F - 36.3 °F 35% 29.70 in 10.0 mi South 29.9 mph 40.3 mph N/A   Clear
1:55 PM 64.9 °F - 36.1 °F 34% 29.72 in 10.0 mi South 28.8 mph 38.0 mph N/A   Clear
2:15 PM 64.9 °F - 35.6 °F 34% 29.70 in 10.0 mi South 26.5 mph 36.8 mph N/A   Clear
2:35 PM 65.3 °F - 36.5 °F 34% 29.69 in 10.0 mi South 25.3 mph 31.1 mph N/A   Clear
2:55 PM 63.0 °F - 40.8 °F 44% 29.69 in 10.0 mi SSW 20.7 mph 26.5 mph N/A Rain Light Rain
3:15 PM 61.7 °F - 39.4 °F 44% 29.67 in 10.0 mi SSW 18.4 mph - N/A   Light Drizzle
3:35 PM 61.3 °F - 39.6 °F 45% 29.66 in 10.0 mi SSW 18.4 mph 21.9 mph N/A Rain Light Rain
3:55 PM 61.9 °F - 40.3 °F 45% 29.64 in 10.0 mi South 26.5 mph 31.1 mph N/A Rain Light Rain
4:15 PM 63.3 °F - 38.8 °F 40% 29.62 in 10.0 mi South 24.2 mph 28.8 mph N/A   Clear
4:35 PM 64.4 °F - 38.5 °F 38% 29.63 in 10.0 mi South 21.9 mph 28.8 mph N/A   Clear
4:55 PM 63.7 °F - 39.2 °F 41% 29.64 in 10.0 mi SSW 20.7 mph 25.3 mph N/A   Clear
5:15 PM 64.0 °F - 39.6 °F 41% 29.64 in 10.0 mi South 20.7 mph - N/A   Clear
5:35 PM 65.1 °F - 39.0 °F 38% 29.62 in 10.0 mi South 23.0 mph 32.2 mph N/A   Clear
5:55 PM 65.1 °F - 39.0 °F 38% 29.62 in 10.0 mi South 21.9 mph 27.6 mph N/A   Scattered Clouds
6:15 PM 63.3 °F - 40.1 °F 43% 29.62 in 10.0 mi SSW 13.8 mph - N/A   Mostly Cloudy
6:35 PM 62.6 °F - 40.3 °F 44% 29.62 in 10.0 mi SSW 13.8 mph - N/A   Overcast
6:55 PM 61.5 °F - 41.2 °F 47% 29.64 in 10.0 mi SW 10.4 mph - N/A   Overcast
7:15 PM 60.1 °F - 43.9 °F 55% 29.64 in 10.0 mi SW 13.8 mph - N/A   Light Drizzle
7:35 PM 57.6 °F - 47.1 °F 68% 29.64 in 10.0 mi SW 11.5 mph - N/A Rain Light Rain
7:55 PM 56.5 °F - 47.8 °F 73% 29.64 in 10.0 mi SSW 12.7 mph 16.1 mph N/A Rain Rain
8:15 PM 54.5 °F - 48.7 °F 81% 29.63 in 10.0 mi South 12.7 mph - 0.01 in Rain , Thunderstorm Light Thunderstorms and Rain
8:35 PM 53.6 °F - 47.3 °F 79% 29.62 in 10.0 mi South 13.8 mph - 0.02 in Rain Light Rain
8:55 PM 53.8 °F - 47.1 °F 78% 29.62 in 10.0 mi South 15.0 mph - 0.02 in   Overcast
9:15 PM 53.8 °F - 46.9 °F 78% 29.61 in 10.0 mi South 16.1 mph - N/A Rain , Thunderstorm Light Thunderstorms and Rain
9:35 PM 54.1 °F - 46.4 °F 75% 29.61 in 10.0 mi SSW 10.4 mph - 0.11 in Rain , Thunderstorm Light Thunderstorms and Rain
9:55 PM 53.4 °F - 46.9 °F 79% 29.64 in 7.0 mi West 13.8 mph - 0.15 in Rain , Thunderstorm Heavy Thunderstorms and Rain
10:15 PM 51.8 °F - 47.8 °F 86% 29.64 in 7.0 mi WSW 4.6 mph 10.4 mph 0.02 in Rain , Thunderstorm Rain
10:35 PM 51.8 °F - 48.6 °F 89% 29.62 in 7.0 mi South 8.1 mph - 0.05 in Rain Rain
10:55 PM 50.9 °F - 48.4 °F 91% 29.62 in 10.0 mi South 9.2 mph - 0.05 in Thunderstorm Overcast
11:15 PM 52.0 °F - 48.6 °F 88% 29.63 in 10.0 mi SW 16.1 mph - N/A   Overcast
11:35 PM 52.7 °F - 49.1 °F 88% 29.64 in 10.0 mi WSW 16.1 mph 21.9 mph N/A   Overcast
11:55 PM 52.3 °F - 49.1 °F 89% 29.64 in 10.0 mi West 17.3 mph 20.7 mph N/A   Overcast